Location: St. Louis
(38.6270°N, 90.1994°W)
Time: 08:44:09
(UTC-06:00)

Vanguard 1 - Pass Details

Date: 06 December 2021
Orbit: 652 x 3830 km, 34.2° (Epoch: 22 January)

Event Time Altitude Azimuth Distance (km) Brightness Sun altitude
Rises 23:24:57 0° 240° (WSW) 6,832 14.3 -72.9°
Enters shadow 23:27:03 - 239° (WSW) 6,458 14.2 -73.0°
Exits shadow 00:08:17 20° 86° (E) 5,653 13.8 -73.5°
Drops below altitude 10° 00:12:03 10° 84° (E) 6,263 14.1 -73.3°
Sets 00:16:14 0° 82° (E) 6,989 14.5 -73.1°
